Preview of NWS' New Version of Forecast
This preview is not operational and should not be used for support decisions.

Regional Weather Roundup (RWR)

Issued by National Weather Service (NWS)

                            
000
ASUS46 KSEW 211010
RWRWA 

WASHINGTON REGIONAL WEATHER ROUNDUP
NATIONAL WEATHER SERVICE SEATTLE WA
300 AM PDT SAT SEP 21 2019

NOTE:"FAIR" INDICATES FEW OR NO CLOUDS BELOW 12,000 FEET WITH NO 
SIGNIFICANT WEATHER AND/OR OBSTRUCTIONS TO VISIBILITY.

WAZ507-509-555>559-211100-
SEATTLE, TACOMA, EVERETT, AND VICINITY
  
CITY           SKY/WX    TMP DP  RH WIND       PRES   REMARKS
EVERETT        CLOUDY    57  53  86 S3        30.16F                  
BOEING FIELD   CLOUDY    59  55  87 SE7       30.16S                  
RENTON         CLOUDY    57  52  83 S6        30.16S                  
SEATAC AIRPORT MOCLDY    58  54  86 S5        30.16S                  
JBLM-MCCHORD   CLOUDY    54  54 100 S5        30.16S                  
PUYALLUP       CLOUDY    57  57 100 CALM      30.17S                  
BREMERTON      FOG       55  55 100 S3        30.16S VSB 3/4          
JBLM-FT LEWIS  MOCLDY    54  54 100 SE6       30.16R                  
TACOMA NARROWS CLEAR     54  53  97 S5        30.17R                  
$$
 
WAZ001-503-506-510-514-515-211100-
NORTH INTERIOR
  
CITY           SKY/WX    TMP DP  RH WIND       PRES   REMARKS
BELLINGHAM     CLOUDY    57  52  83 CALM      30.14S                  
FRIDAY HARBOR  PTCLDY    51  49  92 CALM      30.15S                  
EASTSOUND      CLOUDY    59  55  88 VRB5      30.13F                  
PORT ANGELES   CLEAR     53  52  96 SW5       30.15F                  
EDIZ HOOK      FAIR      55  52  89 S5        30.15S                  
PORT TOWNSEND  CLOUDY    54  54 100 CALM      30.15S                  
NAS WHIDBEY    MOCLDY    60  53  77 CALM      30.19S                  
ARLINGTON      MOCLDY    52  51  97 CALM      30.16F                  
BURLINGTON     CLOUDY    55  54  94 CALM      30.16S                  
$$
 
WAZ020-022-039-040-504-511-512-211100-
SOUTHWEST INTERIOR
  
CITY           SKY/WX    TMP DP  RH WIND       PRES   REMARKS
SHELTON        CLOUDY    57  54  89 W7        30.14S                  
OLYMPIA        CLEAR     50  48  93 CALM      30.16S                  
CHEHALIS       FOG       52  52 100 CALM      30.17S VSB 1/4          
KELSO          CLOUDY    59  57  93 CALM      30.17F                  
VANCOUVER      CLEAR     55  52  89 CALM      30.16S                  
SCAPPOOSE, OR  CLEAR     52  51  97 CALM      30.16S                  
PORTLAND, OR   PTCLDY    57  54  89 CALM      30.17S                  
$$
 
WAZ021-516-517-211100-
WASHINGTON COAST
  
CITY           SKY/WX    TMP DP  RH WIND       PRES   REMARKS
FORKS          CLOUDY    54  53  97 E5        30.15F                  
HOQUIAM        CLOUDY    55  55 100 CALM      30.16F                  
ASTORIA, OR    CLOUDY    60  59  96 CALM      30.16S FOG              
$$
 
WAZ019-023-024-040-567>569-211100-
CASCADE MOUNTAINS AND COLUMBIA GORGE
  
CITY           SKY/WX    TMP DP  RH WIND       PRES   REMARKS
STAMPEDE PASS  NOT AVBL                                               
TROUTDALE, OR  PTCLDY    57  54  89 CALM      30.16S                  
HOOD RIVER, OR SUNNY     52  46  82 CALM      30.13S                  
THE DALLES, OR CLEAR     60  51  72 NW7       30.10S                  
$$

WAZ026-027-041>044-520-521-211100-
EAST SLOPES
  
CITY           SKY/WX    TMP DP  RH WIND       PRES   REMARKS
OMAK           CLEAR     50  41  71 NW5       30.07S                  
WENATCHEE      CLEAR     57  44  62 NW9       30.08S                  
ELLENSBURG     CLEAR     57  44  62 NW16G25   30.09S                  
YAKIMA         CLEAR     46  40  79 W6        30.09S                  
SUNNYSIDE ARPT SUNNY     46  44  93 CALM      30.09S                  
YAKIMA TC      FAIR      54  43  67 E8        30.08S                  
$$

WAZ028-034-035-211100-
COLUMBIA BASIN
  
CITY           SKY/WX    TMP DP  RH WIND       PRES   REMARKS
EPHRATA        CLEAR     60  42  51 W7        30.05R                  
MOSES LAKE     CLEAR     54  45  71 CALM      30.06S                  
PASCO          CLEAR     50  48  93 CALM      30.08S                  
RICHLAND ARPT  SUNNY     55  49  81 CALM      30.08S                  
HERMISTON, OR  CLEAR     58  47  66 SW8       30.10R                  
$$

WAZ036>038-211100-
NORTHEAST WASHINGTON
  
CITY           SKY/WX    TMP DP  RH WIND       PRES   REMARKS
SPOKANE GEIGER PTCLDY    48  44  86 S7        30.07R                  
SPOKANE FELTS  CLEAR     48  45  89 CALM      30.07S                  
FAIRCHILD AFB  CLEAR     48  48 100 CALM      30.06S                  
COEURDALENE,ID FOG       46  45  96 CALM      30.07S VSB 1/4          
DEER PARK      FOG       40  39  97 CALM      30.07S VSB 1/4          
$$

WAZ029>033-211100-
SOUTHEAST WASHINGTON
  
CITY           SKY/WX    TMP DP  RH WIND       PRES   REMARKS
PULLMAN        CLOUDY    50  45  83 NE3       30.11R                  
LEWISTON, ID   CLOUDY    57  49  74 CALM      30.08R                  
WALLA WALLA    PTCLDY    57  47  69 S9        30.10S                  
PENDLETON, OR  PTCLDY    50  45  83 SE6       30.12R                  
$$